This demonstration page uses our WeatherBlox Daily Observations layout. Learn more.

Left ArrowRight Arrow

Hourly Observations for August 4, 2021

Temp ( °F °C ) Dew Point ( °F °C ) Humidity (%) Winds ( mph kmh ) Pressure ( in mb ) Visibility ( mi km ) Precip ( " mm )
12:59 am 00:59 Cloudy with Light Rain 71 21.7 66 18.9 84 84 E 9 15 30.05 1018 6 10 0.03 0.76
1:22 am 01:22 Cloudy with Light Rain 71 21.7 63 17.2 76 76 E 9 15 30.05 1018 6 10 0.01 0.25
1:59 am 01:59 Cloudy with Light Rain 70 21.1 64 17.8 82 82 ENE 5 7 30.04 1017 5 8 0.04 1.02
2:36 am 02:36 Cloudy with Rain 70 21.1 66 18.9 87 87 E 6 9 30.04 1017 5 8 0.09 2.29
2:59 am 02:59 Cloudy with Light Rain 70 21.1 66 18.9 87 87 E 10 17 30.03 1017 4 6 0.16 4.06
3:39 am 03:39 Cloudy with Light Rain 70 21.1 66 18.9 87 87 ENE 9 15 30.01 1016 4 6 0.05 1.27
3:59 am 03:59 Cloudy with Light Rain 70 21.1 67 19.4 90 90 NE 10 17 30.01 1016 4 6 0.08 2.03
4:59 am 04:59 Cloudy with Rain 69 20.6 66 18.9 90 90 NE 15 24 30.00 1016 3 5 0.24 6.10
5:59 am 05:59 Cloudy with Rain 69 20.6 66 18.9 90 90 NE 18 30 30.00 1016 3 5 0.21 5.33
6:59 am 06:59 Cloudy with Rain 70 21.1 66 18.9 87 87 NE 14 22 30.01 1016 2 3 0.28 7.11
7:59 am 07:59 Cloudy with Rain 70 21.1 66 18.9 87 87 NE 16 26 30.02 1017 2 3 0.25 6.35
8:59 am 08:59 Cloudy with Rain 70 21.1 67 19.4 90 90 NE 15 24 30.01 1016 2 3 0.27 6.86
9:06 am 09:06 Cloudy with Light Rain 70 21.1 67 19.4 90 90 NE 18 30 30.01 1016 2 3 0.02 0.51
9:47 am 09:47 Cloudy with Light Rain 70 21.1 67 19.4 90 90 NNE 14 22 30.02 1017 3 5 0.14 3.56
9:59 am 09:59 Cloudy with Light Rain 71 21.7 67 19.4 87 87 NE 12 19 30.02 1017 4 6 0.14 3.56
10:30 am 10:30 Cloudy with Mist and Fog 71 21.7 67 19.4 87 87 NNE 14 22 30.03 1017 6 10 0.01 0.25
10:59 am 10:59 Cloudy with Light Rain 72 22.2 67 19.4 84 84 NNE 15 24 30.02 1017 5 8 0.02 0.51
11:16 am 11:16 Cloudy with Light Rain 72 22.2 68 20 87 87 NNE 13 20 30.03 1017 3 5 0.01 0.25
11:59 am 11:59 Cloudy with Light Rain 72 22.2 68 20 87 87 NNE 15 24 30.03 1017 3 5 0.04 1.02
12:55 pm 12:55 Cloudy with Light Rain 72 22 68 20 88 88 NE 15 24 30.03 1017 3 5 0.06 1.52
12:59 pm 12:59 Cloudy with Light Rain 72 22.2 68 20 87 87 NE 13 20 30.03 1017 2 3 0.06 1.52
1:59 pm 13:59 Cloudy with Mist and Fog 72 22.2 69 20.6 91 91 NNE 12 19 30.03 1017 2 3 0.04 1.02
2:06 pm 14:06 Cloudy with Mist and Fog 72 22.2 68 20 87 87 NNE 10 17 30.03 1017 6 10 0.00 0.00
2:59 pm 14:59 Cloudy 73 22.8 68 20 84 84 NE 12 19 30.03 1017 7 11 0.01 0.25
3:59 pm 15:59 Cloudy 74 23.3 68 20 82 82 NNE 10 17 30.04 1017 9 14 0.00 0.00
4:25 pm 16:25 Cloudy 74 23.3 67 19.4 79 79 NNE 13 20 30.03 1017 9 14 0.00 0.00
4:38 pm 16:38 Cloudy with Light Rain 73 22.8 67 19.4 81 81 NNE 14 22 30.04 1017 2 3 0.00 0.00
4:59 pm 16:59 Cloudy with Light Rain 72 22.2 68 20 87 87 NE 12 19 30.04 1017 2 3 0.00 0.00
5:49 pm 17:49 Cloudy with Light Rain 71 21.7 68 20 90 90 ENE 10 17 30.05 1018 1 2 0.05 1.27
5:59 pm 17:59 Cloudy with Light Rain 70 21.1 67 19.4 90 90 ENE 9 15 30.04 1017 1 2 0.07 1.78
6:11 pm 18:11 Cloudy with Light Rain 71 21.7 68 20 90 90 NE 10 17 30.04 1017 2 2 0.01 0.25
6:38 pm 18:38 Cloudy with Light Rain 71 21.7 68 20 90 90 NE 9 15 30.04 1017 2 3 0.03 0.76
6:47 pm 18:47 Cloudy with Mist and Fog 71 21.7 68 20 90 90 NE 12 19 30.04 1017 6 10 0.03 0.76
6:59 pm 18:59 Cloudy 71 21.7 68 20 90 90 NE 10 17 30.04 1017 7 11 0.03 0.76
7:06 pm 19:06 Cloudy 72 22.2 68 20 87 87 NE 10 17 30.04 1017 8 13 0.00 0.00
7:29 pm 19:29 Cloudy with Light Rain 71 21.7 68 20 90 90 NE 12 19 30.05 1018 2 3 0.00 0.00
7:32 pm 19:32 Cloudy with Light Rain 71 21.7 68 20 90 90 NE 10 17 30.05 1018 2 2 0.00 0.00
7:55 pm 19:55 Cloudy with Light Rain 72 22 68 20 88 88 NE 13 20 30.05 1018 2 3 0.02 0.51
7:59 pm 19:59 Cloudy with Mist and Fog 71 21.7 67 19.4 87 87 NE 13 20 30.05 1018 4 6 0.02 0.51
8:06 pm 20:06 Cloudy 71 21.7 67 19.4 87 87 NE 10 17 30.05 1018 7 11 0.00 0.00
8:59 pm 20:59 Cloudy 72 22.2 67 19.4 84 84 NNE 12 19 30.06 1018 10 16 0.00 0.00
9:59 pm 21:59 Cloudy 72 22.2 67 19.4 84 84 NE 15 24 30.06 1018 10 16 0.00 0.00
10:59 pm 22:59 Cloudy 71 21.7 66 18.9 84 84 NE 14 22 30.06 1018 10 16 0.00 0.00
11:59 pm 23:59 Cloudy 71 21.7 66 18.9 84 84 NE 9 15 30.06 1018 9 14 0.00 0.00

Powered by AerisWeather